Waarnemingen

Advertentie
Mijn weer
Startbyn, Zweden (2181): temperatuur & dauwpunt: 10.12.2017 19:00:00 - 16.12.2017 19:00:00 (CET)Startbyn, Zweden (2181): windsnelheid & windstoten: 10.12.2017 19:00:00 - 16.12.2017 19:00:00 (CET)Startbyn, Zweden (2181): windrichting: 10.12.2017 19:00:00 - 16.12.2017 19:00:00 (CET)Startbyn, Zweden (2181): luchtdruk: 10.12.2017 19:00:00 - 16.12.2017 19:00:00 (CET)Startbyn, Zweden (2181): zicht: 10.12.2017 19:00:00 - 16.12.2017 19:00:00 (CET)Startbyn, Zweden (2181): neerslag: 10.12.2017 19:00:00 - 16.12.2017 19:00:00 (CET)
Datum & Tijd tt [°C] td [°C] ff [km/u] ff [kn] fx [km/u] fx [kn] dd ppp [hPa] vv [km] rr [mm]
16.12.2017 19:00:00 -7,7 -8,8 2 1 5 3 OZO 1003,8 50 0,0
16.12.2017 18:00:00 -8,2 -9,3 0 0 4 2 N 1003,5 50 0,0
16.12.2017 17:00:00 -8,6 -9,8 0 0 3 2 N 1003,4 50 0,0
16.12.2017 16:00:00 -8,8 -10,0 0 0 3 2 N 1003,2 50 0,0
16.12.2017 15:00:00 -9,3 -10,5 0 0 3 2 N 1002,9 41 0,0
16.12.2017 14:00:00 -9,7 -10,9 0 0 3 1 N 1002,4 37 0,0
16.12.2017 13:00:00 -10,1 -11,3 0 0 4 2 N 1002,3 22 0,0
16.12.2017 12:00:00 -10,2 -11,4 0 0 4 2 N 1002,2 17 0,0
16.12.2017 11:00:00 -10,5 -11,5 0 0 3 1 N 1001,9 0,3 0,0
16.12.2017 10:00:00 -10,7 -11,7 0 0 3 1 N 1001,6 1,1 0,0
16.12.2017 09:00:00 -11,3 -12,5 0 0 6 3 N 1001,3 2,9 0,0
16.12.2017 08:00:00 -10,4 -11,6 0 0 5 3 N 1000,6 19 0,0
16.12.2017 07:00:00 -10,4 -11,6 0 0 3 2 N 1000,2 16 0,0
16.12.2017 06:00:00 -11,6 -12,8 0 0 3 1 N 999,7 50 0,0
16.12.2017 05:00:00 -12,4 -13,7 0 0 4 2 N 999,2 50 0,0
16.12.2017 04:00:00 -9,9 -11,0 2 1 4 2 WNW 998,7 50 0,0
16.12.2017 03:00:00 -8,6 -9,5 0 0 2 1 N 998,5 50 0,0
16.12.2017 02:00:00 -7,8 -8,6 0 0 3 2 N 998,3 50 0,0
16.12.2017 01:00:00 -6,1 -6,9 0 0 4 2 N 998,0 20 0,1
16.12.2017 00:00:00 -4,8 -5,6 2 1 4 2 NW 997,6 8 0,0
15.12.2017 23:00:00 -4,5 -5,3 2 1 5 3 NW 997,6 8 0,2
15.12.2017 22:00:00 -4,3 -5,1 4 2 6 3 NW 997,4 6 0,1
15.12.2017 21:00:00 -4,3 -5,1 3 2 8 4 NW 997,2 7 0,1
15.12.2017 20:00:00 -4,4 -5,1 3 2 7 4 NW 997,0 13 0,0
15.12.2017 19:00:00 -5,7 -6,5 3 1 6 3 N 996,7 9 0,0
15.12.2017 18:00:00 -4,2 -4,9 2 1 4 2 N 996,7 2,0 0,3
15.12.2017 17:00:00 -4,3 -5,0 0 0 4 2 N 996,7 2,9 0,1
15.12.2017 16:00:00 -4,8 -5,5 0 0 5 3 N 996,6 8 0,0
15.12.2017 15:00:00 -5,0 -5,8 0 0 8 5 N 996,5 2,3 0,2
15.12.2017 14:00:00 -4,0 -5,0 4 2 12 6 NO 996,5 11 0,1
15.12.2017 13:00:00 -3,6 -4,6 4 2 15 8 ONO 996,5 19 0,0
15.12.2017 12:00:00 -3,1 -4,2 6 3 13 7 O 996,4 45 0,0
15.12.2017 11:00:00 -2,9 -3,9 0 0 15 8 N 996,4 23 0,0
15.12.2017 10:00:00 -2,5 -3,5 6 4 22 12 O 996,2 22 0,0
15.12.2017 09:00:00 -2,2 -3,0 11 6 21 12 O 996,0 29 0,0
15.12.2017 08:00:00 -2,0 -2,8 9 5 19 11 ONO 995,6 16 0,1
15.12.2017 07:00:00 -2,0 -3,0 9 5 20 11 O 995,3 35 0,0
15.12.2017 06:00:00 -2,2 -3,0 7 4 16 9 O 995,0 50 0,0
15.12.2017 05:00:00 -2,3 -3,0 6 4 14 7 O 994,7 50 0,0
15.12.2017 04:00:00 -2,4 -3,2 7 4 16 9 O 994,4 50 0,0
15.12.2017 03:00:00 -2,3 -3,1 6 3 16 9 O 994,4 50 0,0
15.12.2017 02:00:00 -2,3 -2,9 7 4 20 11 O 994,3 31 0,0
15.12.2017 01:00:00 -8,7 -9,9 0 0 4 2 N 994,1 21 0,0
15.12.2017 00:00:00 -9,7 -11,0 2 1 5 3 W 994,0 50 0,0
14.12.2017 23:00:00 -10,5 -12,0 3 1 5 3 W 993,7 50 0,1
14.12.2017 22:00:00 -11,1 -12,6 3 2 5 3 W 993,5 5 0,2
14.12.2017 21:00:00 -11,5 -12,9 2 1 4 2 W 993,2 3,3 0,6
14.12.2017 20:00:00 -12,2 -13,8 0 0 5 3 N 992,7 1,5 0,9
14.12.2017 19:00:00 -12,8 -14,4 0 0 5 3 N 992,6 1,4 0,7
14.12.2017 18:00:00 -13,2 -14,9 0 0 7 4 N 992,2 1,2 0,7
14.12.2017 17:00:00 -13,7 -15,4 4 2 7 4 NW 991,9 1,8 0,3
14.12.2017 16:00:00 -14,5 -16,2 3 2 7 4 WNW 991,8 1,8 0,4
14.12.2017 15:00:00 -15,4 -17,2 3 1 8 4 NW 991,8 5 0,2
14.12.2017 14:00:00 -17,9 -19,9 0 0 3 1 N 991,5 19 0,0
14.12.2017 13:00:00 -18,4 -20,6 0 0 4 2 N 991,2 46 0,0
14.12.2017 12:00:00 -19,6 -21,9 0 0 7 4 N 991,2 31 0,0
14.12.2017 11:00:00 -19,0 -21,0 4 2 6 4 O 990,9 25 0,0
14.12.2017 10:00:00 -19,4 -21,7 0 0 6 3 N 990,3 50 0,0
14.12.2017 09:00:00 -15,5 -17,2 3 2 9 5 OZO 989,4 50 0,0
14.12.2017 08:00:00 -15,8 -17,6 3 2 7 4 OZO 988,8 50 0,0
14.12.2017 07:00:00 -16,0 -17,8 4 2 12 6 OZO 988,4 50 0,0
14.12.2017 06:00:00 -16,1 -18,0 6 3 13 7 OZO 987,9 50 0,0
14.12.2017 05:00:00 -15,4 -17,2 5 3 16 9 OZO 987,2 50 0,0
14.12.2017 04:00:00 -15,7 -17,6 8 4 19 10 ZO 986,7 50 0,0
14.12.2017 03:00:00 -15,3 -17,1 10 5 18 10 ZO 986,1 50 0,0
14.12.2017 02:00:00 -14,3 -16,0 9 5 18 10 ZO 985,4 50 0,0
14.12.2017 01:00:00 -14,7 -16,4 12 6 21 12 ZO 985,1 50 0,0
14.12.2017 00:00:00 -14,6 -16,3 8 5 18 10 ZO 984,3 50 0,0
13.12.2017 23:00:00 -13,8 -15,5 9 5 19 10 ZO 983,7 50 0,0
13.12.2017 22:00:00 -13,2 -14,8 7 4 17 9 ZO 983,0 50 0,0
13.12.2017 21:00:00 -12,6 -14,0 8 4 20 11 ZO 982,9 26 0,0
13.12.2017 20:00:00 -12,0 -13,3 6 4 13 7 ZO 982,9 33 0,0
13.12.2017 19:00:00 -11,2 -12,5 4 2 12 7 OZO 982,7 50 0,0
13.12.2017 18:00:00 -11,0 -12,4 6 3 11 6 ZO 982,5 50 0,0
13.12.2017 17:00:00 -10,0 -11,2 5 3 10 5 ZO 982,1 50 0,0
13.12.2017 16:00:00 -8,3 -9,6 6 3 11 6 OZO 981,8 50 0,0
13.12.2017 15:00:00 -6,9 -8,1 5 3 13 7 ZZW 981,4 50 0,0
13.12.2017 14:00:00 -5,6 -6,9 9 5 16 9 ZZW 981,1 17 0,0
13.12.2017 13:00:00 -5,1 -6,4 6 4 19 10 ZW 980,6 8 0,0
13.12.2017 12:00:00 -5,0 -6,1 10 5 23 12 WZW 980,1 7 0,2
13.12.2017 11:00:00 -4,8 -5,9 10 6 25 13 WZW 979,5 3,6 0,1
13.12.2017 10:00:00 -4,8 -5,9 13 7 27 15 WZW 979,1 2,8 0,4
13.12.2017 09:00:00 -4,8 -5,8 14 8 28 15 W 978,5 1,8 0,2
13.12.2017 08:00:00 -4,8 -5,8 14 8 28 15 W 978,1 2,6 0,1
13.12.2017 07:00:00 -4,6 -5,6 14 8 27 15 W 978,0 1,8 0,1
13.12.2017 06:00:00 -4,6 -5,6 14 8 26 14 W 978,2 6 0,1
13.12.2017 05:00:00 -4,6 -5,6 12 6 26 14 W 978,2 6 0,1
13.12.2017 04:00:00 -4,7 -5,7 11 6 24 13 WNW 978,5 2,4 0,3
13.12.2017 03:00:00 -4,6 -5,4 11 6 21 12 WNW 979,2 1,1 0,4
13.12.2017 02:00:00 -4,8 -5,8 11 6 22 12 WNW 980,1 1,6 0,6
13.12.2017 01:00:00 -4,8 -5,6 10 6 21 11 WNW 981,1 1,4 0,3
13.12.2017 00:00:00 -4,9 -5,7 10 5 24 13 WNW 982,4 1,6 0,5
12.12.2017 23:00:00 -4,8 -5,6 10 5 22 12 WNW 983,8 1,2 0,3
12.12.2017 22:00:00 -4,8 -5,6 10 5 18 10 WNW 985,4 1,3 0,7
12.12.2017 21:00:00 -4,6 -5,4 8 5 18 10 WNW 987,0 1,1 0,5
12.12.2017 20:00:00 -4,6 -5,4 8 5 22 12 WNW 988,4 1,1 0,4
12.12.2017 19:00:00 -4,5 -5,5 7 4 16 9 WNW 990,3 2,3 0,1
12.12.2017 18:00:00 -4,3 -5,3 6 3 13 7 NW 991,8 3,6 0,2
12.12.2017 17:00:00 -4,5 -5,3 6 3 10 5 WNW 993,4 7 0,1
12.12.2017 16:00:00 -4,4 -5,4 5 3 10 6 NW 994,8 3,7 0,0
12.12.2017 15:00:00 -4,3 -5,3 4 2 12 6 NW 996,1 17 0,0
12.12.2017 14:00:00 -4,3 -5,3 6 3 10 6 NNW 996,9 5 0,1
12.12.2017 13:00:00 -4,4 -5,5 5 3 9 5 NNW 998,0 44 0,0
12.12.2017 12:00:00 -4,2 -5,2 4 2 8 4 NNW 999,1 50 0,0
12.12.2017 11:00:00 -4,1 -5,1 3 1 8 4 WNW 1000,0 42 0,0
12.12.2017 10:00:00 -3,9 -4,9 3 2 7 4 N 1000,8 44 0,0
12.12.2017 09:00:00 -3,6 -4,7 4 2 13 7 ONO 1001,1 44 0,0
12.12.2017 08:00:00 -2,8 -3,8 6 3 13 7 O 1001,5 42 0,0
12.12.2017 07:00:00 -2,5 -3,2 3 2 10 5 OZO 1001,8 43 0,0
12.12.2017 06:00:00 -2,0 -2,7 3 2 16 9 O 1002,3 41 0,0
12.12.2017 05:00:00 -1,4 -2,0 6 4 16 9 ONO 1002,8 7 0,1
12.12.2017 04:00:00 -1,1 -1,5 4 2 11 6 O 1002,7 20 0,0
12.12.2017 03:00:00 -0,8 -1,2 5 3 11 6 O 1003,0 21 0,1
12.12.2017 02:00:00 -0,7 -1,1 3 2 10 5 O 1003,1 2,1 0,3
12.12.2017 01:00:00 -0,8 -1,2 2 1 10 5 OZO 1003,3 13 0,2
12.12.2017 00:00:00 -0,1 -0,5 6 4 15 8 ZO 1003,4 0,8 1,5
11.12.2017 23:00:00 -0,4 -0,8 4 2 8 5 O 1003,5 17 0,0
11.12.2017 22:00:00 -0,6 -1,0 4 2 9 5 ONO 1003,5 8 0,3
11.12.2017 21:00:00 -0,6 -1,0 4 2 9 5 ONO 1003,4 13 0,0
11.12.2017 20:00:00 -0,8 -1,2 3 2 7 4 O 1003,3 18 0,0
11.12.2017 19:00:00 -0,9 -1,3 2 1 7 4 ONO 1003,0 25 0,0
11.12.2017 18:00:00 -0,8 -1,2 5 3 10 6 O 1002,7 7 0,4
11.12.2017 17:00:00 -0,7 -1,1 4 2 9 5 ONO 1002,2 12 0,0
11.12.2017 16:00:00 -1,4 -1,8 0 0 5 3 N 1001,8 14 0,0
11.12.2017 15:00:00 -1,7 -2,1 0 0 3 2 N 1001,3 10 0,0
11.12.2017 14:00:00 -1,2 -1,6 0 0 5 3 N 1000,9 17 0,0
11.12.2017 13:00:00 -0,9 -1,3 3 2 12 6 O 1000,6 21 0,0
11.12.2017 12:00:00 -0,7 -1,1 4 2 8 5 OZO 1000,4 40 0,1
11.12.2017 11:00:00 -1,1 -1,5 4 2 9 5 OZO 1000,0 42 0,0
11.12.2017 10:00:00 -2,0 -2,4 3 2 8 4 O 999,6 20 0,0
11.12.2017 09:00:00 -1,7 -2,1 2 1 6 4 O 999,1 15 0,1
11.12.2017 08:00:00 -2,6 -3,0 0 0 4 2 N 998,6 9 0,0
11.12.2017 07:00:00 -1,8 -2,2 0 0 5 3 N 997,9 6 0,0
11.12.2017 06:00:00 -0,8 -1,2 3 2 7 4 O 997,4 13 0,1
11.12.2017 05:00:00 -1,0 -1,4 3 1 8 5 ONO 996,9 0,5 1,5
11.12.2017 04:00:00 -1,2 -1,6 0 0 4 2 N 996,7 11 0,1
11.12.2017 03:00:00 -1,4 -2,0 2 1 5 3 WNW 996,5 6 0,1
11.12.2017 02:00:00 -1,5 -2,1 2 1 4 2 WNW 996,4 9 0,1
11.12.2017 01:00:00 -1,5 -2,2 2 1 5 3 NW 996,4 9 0,0
11.12.2017 00:00:00 -1,6 -2,3 3 2 6 4 NNW 996,2 27 0,0
10.12.2017 23:00:00 -1,7 -2,5 4 2 12 6 W 996,3 20 0,0
10.12.2017 22:00:00 -1,5 -2,5 7 4 12 7 NNO 996,3 37 0,0
10.12.2017 21:00:00 -1,5 -2,5 5 3 14 8 NNO 996,4 50 0,0
10.12.2017 20:00:00 -1,4 -2,5 7 4 15 8 NO 996,5 50 0,0
10.12.2017 19:00:00 -1,3 -2,4 5 3 13 7 NO 996,7 50 0,0

tt = temperatuur
td = dauwpunt
ff = windsnelheid
fx = windstoten
dd = windrichting
ppp = luchtdruk
vv = zicht
rr = neerslag

Weerstations in de omgeving